tititudorancea.com
Station Historical Data
Daily Summary for August 3, 2018 Units:  Metric    English   Both
« Previous Day
Next Day »
Daily Weekly Monthly Yearly Custom
  High: Low: Average:
Temperature: -17.8 °C 6.4 °C 9.1 °C
Dew Point: -17.8 °C 1.4 °C 4.3 °C
Humidity: Humidity % 49 % 74 %
Wind Speed: 0 km/h 0 km/h 16.9 km/h
Wind Gust: 0 km/h - -
Wind:- - WSW
Pressure: 0 hPa 998.5 hPa -
Precipitation: 15.19 mm    
Historical Graphs
 
 
Ararat weather Find more about Weather in Ararat, AU


 



 


Tabular Data for August 3, 2018
Time Temperature Dew Point Pressure Wind Wind Speed Wind Gust Humidity Rainfall Rate (Hourly)
-17.8 °C -17.8 °C 0 hPa Calm     Humidity % 0 mm
00:04 11.9 °C 3.9 °C 1008.7 hPa NNE 32.2 km/h 20.6 km/h 58 % 0 mm
00:09 12 °C 4 °C 1008.7 hPa NE 29.6 km/h 17.4 km/h 58 % 0 mm
00:14 12.1 °C 4.1 °C 1008.7 hPa NE 33.3 km/h 18.3 km/h 58 % 0 mm
00:19 12.1 °C 4.1 °C 1009 hPa NNE 20.9 km/h 18.3 km/h 58 % 0 mm
00:24 11.9 °C 3.9 °C 1008.7 hPa NE 31.5 km/h 20.8 km/h 58 % 0 mm
00:29 11.9 °C 3.9 °C 1008.7 hPa NNE 31.5 km/h 16.4 km/h 58 % 0 mm
00:34 11.9 °C 3.9 °C 1008.7 hPa NNE 18.5 km/h 13.2 km/h 58 % 0 mm
00:39 11.9 °C 3.9 °C 1008.7 hPa NNE 18.5 km/h 14 km/h 58 % 0 mm
00:44 11.8 °C 3.8 °C 1008.7 hPa NNE 25.9 km/h 12.2 km/h 58 % 0 mm
00:49 11.8 °C 3.8 °C 1008.7 hPa NNE 22.2 km/h 15.3 km/h 58 % 0 mm
00:54 11.7 °C 3.9 °C 1008.7 hPa NNE 18.5 km/h 9.3 km/h 59 % 0 mm
00:59 11.7 °C 3.9 °C 1008.7 hPa NNE 25.9 km/h 16.4 km/h 59 % 0 mm
01:04 11.7 °C 3.7 °C 1008.7 hPa NNE 22.2 km/h 15.8 km/h 58 % 0 mm
01:09 11.7 °C 3.7 °C 1008.4 hPa NNE 22.2 km/h 14.3 km/h 58 % 0 mm
01:14 11.8 °C 3.8 °C 1008.4 hPa NNE 20.9 km/h 19.6 km/h 58 % 0 mm
01:19 11.8 °C 3.6 °C 1008.4 hPa NNE 22.2 km/h 16.7 km/h 57 % 0 mm
01:24 11.8 °C 3.6 °C 1008.4 hPa NNE 33.3 km/h 17.1 km/h 57 % 0 mm
01:29 11.8 °C 3.6 °C 1008.4 hPa NNE 25.9 km/h 19.2 km/h 57 % 0 mm
01:34 11.9 °C 3.4 °C 1008.4 hPa NNE 31.5 km/h 19.2 km/h 56 % 0 mm
01:39 11.8 °C 3.6 °C 1008 hPa NNE 25.9 km/h 17.4 km/h 57 % 0 mm
01:44 11.8 °C 3.6 °C 1008 hPa NNE 31.5 km/h 16.7 km/h 57 % 0 mm
01:49 11.8 °C 3.6 °C 1008 hPa North 31.5 km/h 15 km/h 57 % 0 mm
01:54 11.7 °C 3.4 °C 1008 hPa NNE 33.3 km/h 10.8 km/h 57 % 0 mm
01:59 11.7 °C 3.4 °C 1007.7 hPa North 25.9 km/h 15.9 km/h 57 % 0 mm
02:04 11.7 °C 3.4 °C 1007.7 hPa North 25.9 km/h 14.8 km/h 57 % 0 mm
02:09 11.7 °C 3.2 °C 1007.3 hPa NNE 24.1 km/h 14.5 km/h 56 % 0 mm
02:14 11.7 °C 3.2 °C 1007.3 hPa North 33.3 km/h 17.9 km/h 56 % 0 mm
02:19 11.7 °C 3.2 °C 1007 hPa NNE 27.8 km/h 17.4 km/h 56 % 0 mm
02:24 11.7 °C 3.2 °C 1007 hPa NNE 25.9 km/h 15.3 km/h 56 % 0 mm
02:29 11.8 °C 3 °C 1007 hPa NNE 24.1 km/h 17.4 km/h 55 % 0 mm
02:34 11.8 °C 3 °C 1007 hPa NNE 16.7 km/h 18.3 km/h 55 % 0 mm
02:39 11.8 °C 3 °C 1007 hPa NNE 25.9 km/h 12.9 km/h 55 % 0 mm
02:44 11.7 °C 2.9 °C 1006.7 hPa NNE 16.7 km/h 9.5 km/h 55 % 0 mm
02:49 11.7 °C 2.7 °C 1006.7 hPa NNE 24.1 km/h 12.2 km/h 54 % 0 mm
02:54 11.7 °C 2.7 °C 1006.7 hPa NNE 22.2 km/h 10.6 km/h 54 % 0 mm
02:59 11.9 °C 2.6 °C 1006.3 hPa North 29.6 km/h 21.9 km/h 53 % 0 mm
03:04 11.9 °C 2.4 °C 1006.3 hPa NE 27.4 km/h 21.7 km/h 52 % 0 mm
03:09 12 °C 2.4 °C 1006 hPa NNE 29.6 km/h 12.6 km/h 52 % 0 mm
03:14 12 °C 2.4 °C 1006 hPa NNE 29.6 km/h 15.4 km/h 52 % 0 mm
03:19 12.1 °C 2.3 °C 1005.6 hPa NNE 29.6 km/h 14.2 km/h 51 % 0 mm
03:24 12.1 °C 2.3 °C 1005.6 hPa NNE 22.2 km/h 15.4 km/h 51 % 0 mm
03:29 12.2 °C 2.3 °C 1005.6 hPa North 32.2 km/h 11.6 km/h 51 % 0 mm
03:34 12.2 °C 2.1 °C 1005.6 hPa NNE 20.4 km/h 12.6 km/h 50 % 0 mm
03:39 12.2 °C 2.1 °C 1005.3 hPa North 22.5 km/h 17.1 km/h 50 % 0 mm
03:44 12.2 °C 2.1 °C 1005.3 hPa North 20.9 km/h 10.1 km/h 50 % 0 mm
03:49 12.3 °C 1.9 °C 1005.3 hPa NNE 33.3 km/h 15.4 km/h 49 % 0 mm
03:54 12.3 °C 1.9 °C 1005 hPa NNE 18.5 km/h 10.6 km/h 49 % 0 mm
03:59 12.3 °C 2.2 °C 1005 hPa NNE 11.1 km/h 5.6 km/h 50 % 0 mm
04:04 12.1 °C 2.3 °C 1005 hPa NNE 9.7 km/h 5.3 km/h 51 % 0 mm
04:09 11.8 °C 2.2 °C 1005 hPa NNE 11.1 km/h 2.6 km/h 52 % 0 mm
04:14 11.8 °C 2 °C 1005 hPa North 14.8 km/h 10.6 km/h 51 % 0 mm
04:19 12 °C 1.9 °C 1004.6 hPa North 29 km/h 18.2 km/h 50 % 0 mm
04:24 12.2 °C 2.1 °C 1004.6 hPa NNE 25.7 km/h 16.7 km/h 50 % 0 mm
04:29 12.2 °C 1.8 °C 1004.6 hPa NNE 38.9 km/h 19 km/h 49 % 0 mm
04:34 12.2 °C 1.8 °C 1004.6 hPa North 27.8 km/h 15.4 km/h 49 % 0 mm
04:39 12.2 °C 1.8 °C 1004.6 hPa North 25.9 km/h 11.1 km/h 49 % 0 mm
04:44 12.2 °C 1.8 °C 1004.6 hPa North 31.5 km/h 22.5 km/h 49 % 0 mm
04:49 12.2 °C 1.8 °C 1005 hPa North 37 km/h 19.6 km/h 49 % 0 mm
04:54 12.1 °C 2 °C 1004.6 hPa North 38.9 km/h 18.7 km/h 50 % 0 mm
04:59 12.1 °C 2 °C 1004.6 hPa North 22.2 km/h 15 km/h 50 % 0 mm
05:04 12.1 °C 1.9 °C 1004.6 hPa North 20.4 km/h 18.3 km/h 50 % 0 mm
05:09 12.1 °C 1.9 °C 1004.6 hPa North 31.5 km/h 11.7 km/h 50 % 0 mm
05:14 12 °C 1.9 °C 1004.3 hPa North 33.3 km/h 19.5 km/h 50 % 0 mm
05:19 11.9 °C 2.1 °C 1004.3 hPa North 24.1 km/h 12.9 km/h 51 % 0 mm
05:24 11.8 °C 2 °C 1004.3 hPa NNE 30.6 km/h 25.9 km/h 51 % 0 mm
05:29 11.8 °C 2 °C 1004.3 hPa North 31.5 km/h 19.8 km/h 51 % 0 mm
05:34 11.7 °C 1.9 °C 1004.3 hPa North 20.9 km/h 11.7 km/h 51 % 0 mm
05:39 11.7 °C 1.8 °C 1004.3 hPa North 24.1 km/h 15.3 km/h 51 % 0 mm
05:44 11.6 °C 1.8 °C 1004.3 hPa North 24.1 km/h 15 km/h 51 % 0 mm
05:49 11.6 °C 2 °C 1004.3 hPa North 24.1 km/h 11.4 km/h 52 % 0 mm
05:54 11.5 °C 2 °C 1003.9 hPa North 25.9 km/h 15.1 km/h 52 % 0 mm
05:59 11.4 °C 2.2 °C 1003.9 hPa North 18.5 km/h 5.3 km/h 53 % 0 mm
06:04 11.4 °C 2.1 °C 1003.9 hPa North 18.5 km/h 13.4 km/h 53 % 0 mm
06:09 11.3 °C 2.1 °C 1003.9 hPa North 18.5 km/h 11.1 km/h 53 % 0 mm
06:14 11.3 °C 2.1 °C 1003.9 hPa NNW 18.5 km/h 12.1 km/h 53 % 0 mm
06:19 11.3 °C 2.1 °C 1003.9 hPa North 25.9 km/h 15 km/h 53 % 0 mm
06:24 11.3 °C 2.1 °C 1003.9 hPa North 22.2 km/h 10.5 km/h 53 % 0 mm
06:29 11.2 °C 2.2 °C 1003.9 hPa North 22.2 km/h 9.8 km/h 54 % 0 mm
06:34 11.2 °C 2.2 °C 1003.9 hPa North 20.9 km/h 13.5 km/h 54 % 0 mm
06:39 11.1 °C 2.2 °C 1003.9 hPa North 18.5 km/h 11.7 km/h 54 % 0 mm
06:44 11.1 °C 2.1 °C 1003.6 hPa North 14.8 km/h 9.8 km/h 54 % 0 mm
06:49 11.1 °C 2.2 °C 1003.6 hPa North 24.1 km/h 11.4 km/h 54 % 0 mm
06:54 11.1 °C 2.1 °C 1003.6 hPa North 14.5 km/h 9.5 km/h 54 % 0 mm
06:59 11.1 °C 2.1 °C 1003.6 hPa NNW 18.5 km/h 13.4 km/h 54 % 0 mm
07:04 11.1 °C 2.1 °C 1003.6 hPa North 17.7 km/h 11.7 km/h 54 % 0 mm
07:09 11.1 °C 2.1 °C 1003.6 hPa North 16.7 km/h 8.9 km/h 54 % 0 mm
07:14 11 °C 2.1 °C 1003.3 hPa North 17.7 km/h 8.9 km/h 54 % 0 mm
07:19 10.9 °C 2 °C 1003.6 hPa North 14.8 km/h 9.8 km/h 54 % 0 mm
07:24 11 °C 2.1 °C 1003.6 hPa North 11.1 km/h 7.6 km/h 54 % 0 mm
07:29 11 °C 2.1 °C 1003.6 hPa North 14.8 km/h 7.2 km/h 54 % 0 mm
07:34 11 °C 2.1 °C 1003.6 hPa North 11.1 km/h 5.1 km/h 54 % 0 mm
07:39 10.9 °C 2 °C 1003.6 hPa North 17.7 km/h 8.4 km/h 54 % 0 mm
07:44 11.1 °C 1.8 °C 1003.6 hPa North 22.2 km/h 12.2 km/h 53 % 0 mm
07:49 11.2 °C 1.9 °C 1003.3 hPa North 14.8 km/h 9.3 km/h 53 % 0 mm
07:54 11.2 °C 1.9 °C 1003.3 hPa North 18.5 km/h 11.9 km/h 53 % 0 mm
07:59 11.2 °C 2 °C 1003.3 hPa North 18.5 km/h 13 km/h 53 % 0 mm
08:04 11.3 °C 1.8 °C 1003.3 hPa NNE 24.1 km/h 18.5 km/h 52 % 0 mm
08:09 11.4 °C 1.7 °C 1003.3 hPa North 16.7 km/h 12.2 km/h 51 % 0 mm
08:14 11.6 °C 1.8 °C 1003.3 hPa North 18.5 km/h 11.3 km/h 51 % 0 mm
08:19 11.7 °C 1.6 °C 1003.3 hPa North 24.1 km/h 19.8 km/h 50 % 0 mm
08:24 11.8 °C 1.4 °C 1002.6 hPa North 29.6 km/h 10 km/h 49 % 0 mm
08:29 11.8 °C 1.4 °C 1002.6 hPa North 27.8 km/h 14.8 km/h 49 % 0 mm
08:34 11.8 °C 1.4 °C 1002.9 hPa North 16.7 km/h 10.9 km/h 49 % 0 mm
08:39 11.8 °C 1.4 °C 1002.9 hPa North 27.8 km/h 18.7 km/h 49 % 0 mm
08:44 11.8 °C 1.4 °C 1003.3 hPa NNW 24.1 km/h 24.1 km/h 49 % 0 mm
08:49 11.8 °C 1.4 °C 1002.6 hPa North 20.4 km/h 17.9 km/h 49 % 0 mm
08:54 11.7 °C 1.6 °C 1002.6 hPa North 24.1 km/h 12.7 km/h 50 % 0 mm
08:59 11.7 °C 1.6 °C 1002.6 hPa North 22.2 km/h 15.1 km/h 50 % 0 mm
09:04 11.6 °C 1.8 °C 1002.6 hPa North 24.1 km/h 12.4 km/h 51 % 0 mm
09:09 11.6 °C 1.8 °C 1002.6 hPa NNE 24.1 km/h 16.7 km/h 51 % 0 mm
09:14 11.5 °C 1.7 °C 1002.6 hPa North 19.3 km/h 12.2 km/h 51 % 0 mm
09:19 11.5 °C 2 °C 1002.6 hPa North 24.1 km/h 13.4 km/h 52 % 0 mm
09:24 11.4 °C 1.9 °C 1002.3 hPa NNW 27.8 km/h 19.3 km/h 52 % 0 mm
09:29 11.4 °C 2.1 °C 1002.3 hPa North 27.4 km/h 19.3 km/h 53 % 0 mm
09:34 11.3 °C 1.8 °C 1002.3 hPa North 27.8 km/h 12.4 km/h 52 % 0 mm
09:39 11.3 °C 2.1 °C 1001.9 hPa North 27.8 km/h 17.1 km/h 53 % 0 mm
09:44 11.3 °C 2.1 °C 1002.3 hPa North 18.5 km/h 9 km/h 53 % 0 mm
09:49 11.3 °C 2.1 °C 1002.3 hPa North 18.5 km/h 10.1 km/h 53 % 0 mm
09:54 11.3 °C 2.1 °C 1001.9 hPa North 20.9 km/h 18 km/h 53 % 0 mm
09:59 11.3 °C 2.1 °C 1001.6 hPa NNW 27.8 km/h 11.6 km/h 53 % 0 mm
10:04 11.3 °C 2.1 °C 1001.6 hPa North 20.4 km/h 13.8 km/h 53 % 0 mm
10:09 11.2 °C 2.2 °C 1001.2 hPa North 14.8 km/h 8.4 km/h 54 % 0 mm
10:14 11.2 °C 2.4 °C 1001.2 hPa North 14.5 km/h 12.6 km/h 55 % 0 mm
10:19 11.1 °C 2.2 °C 1001.2 hPa North 27.8 km/h 16.9 km/h 54 % 0 mm
10:24 11.1 °C 2.2 °C 1001.2 hPa NNE 18.5 km/h 15.3 km/h 54 % 0 mm
10:29 11.1 °C 2.9 °C 1001.2 hPa North 17.7 km/h 9 km/h 57 % 0 mm
10:34 10.8 °C 3.1 °C 1000.6 hPa North 18.5 km/h 11.6 km/h 59 % 0 mm
10:39 10.5 °C 3.1 °C 1000.9 hPa NNE 18.5 km/h 8.9 km/h 60 % 0.2 mm
10:44 10.2 °C 3.3 °C 1000.9 hPa NNE 29.6 km/h 13 km/h 62 % 0.2 mm
10:49 9.9 °C 3.6 °C 1000.6 hPa NNE 27.4 km/h 14.5 km/h 65 % 0.2 mm
10:54 9.6 °C 3.5 °C 1000.2 hPa NNE 20.4 km/h 17.4 km/h 66 % 0.41 mm
10:59 9.3 °C 3.9 °C 1000.2 hPa NNE 14.8 km/h 7.7 km/h 69 % 0.61 mm
11:04 8.9 °C 4.2 °C 1000.6 hPa NNE 9.3 km/h 7.6 km/h 72 % 0.79 mm
11:09 8.6 °C 4.2 °C 1000.6 hPa NNE 11.1 km/h 8 km/h 74 % 0.99 mm
11:14 8.1 °C 4.5 °C 1000.6 hPa NW 16.7 km/h 12.1 km/h 78 % 1.4 mm
11:19 7.7 °C 4.7 °C 1000.9 hPa NW 20.4 km/h 14.5 km/h 81 % 2.01 mm
11:24 7.4 °C 4.7 °C 1000.6 hPa NW 24.1 km/h 13.2 km/h 83 % 2.21 mm
11:29 7.3 °C 4.8 °C 1000.6 hPa NNW 14.5 km/h 10.1 km/h 84 % 2.59 mm
11:34 7.2 °C 5.1 °C 1000.6 hPa NNW 18.5 km/h 8.5 km/h 86 % 2.79 mm
11:39 7.2 °C 5 °C 1000.6 hPa North 16.7 km/h 12.7 km/h 86 % 2.79 mm
11:44 7.1 °C 5.1 °C 1000.2 hPa North 18.5 km/h 6.6 km/h 87 % 3 mm
11:49 7 °C 5 °C 999.9 hPa North 13 km/h 6.6 km/h 87 % 3.4 mm
11:54 6.9 °C 5.1 °C 999.5 hPa NNW 13 km/h 5.3 km/h 88 % 3.61 mm
11:59 6.9 °C 5.1 °C 999.9 hPa NNW 9.3 km/h 6.9 km/h 88 % 3.61 mm
12:04 6.9 °C 5.2 °C 999.9 hPa NNW 9.7 km/h 7.7 km/h 89 % 3.81 mm
12:09 6.8 °C 5.2 °C 999.9 hPa NNW 14.8 km/h 8.2 km/h 89 % 4.19 mm
12:14 6.8 °C 5.3 °C 999.9 hPa North 9.7 km/h 10.5 km/h 90 % 4.19 mm
12:19 6.7 °C 5.2 °C 999.9 hPa NNW 13 km/h 9.7 km/h 90 % 3.99 mm
12:24 6.7 °C 5.2 °C 999.9 hPa North 11.3 km/h 9.5 km/h 90 % 4.39 mm
12:29 6.7 °C 5.3 °C 1000.2 hPa North 13 km/h 12.1 km/h 91 % 4.6 mm
12:34 6.6 °C 5.2 °C 999.9 hPa NNW 14.8 km/h 12.7 km/h 91 % 4.8 mm
12:39 6.6 °C 5.2 °C 999.9 hPa North 16.7 km/h 11.3 km/h 91 % 5 mm
12:44 6.6 °C 5.3 °C 999.9 hPa North 18.5 km/h 6.4 km/h 92 % 5 mm
12:49 6.6 °C 5.4 °C 1000.2 hPa North 13 km/h 9.3 km/h 92 % 5 mm
12:54 6.6 °C 5.3 °C 999.9 hPa NNW 13 km/h 11.6 km/h 92 % 4.8 mm
12:59 6.5 °C 5.3 °C 999.9 hPa North 14.8 km/h 8.4 km/h 92 % 4.8 mm
13:04 6.6 °C 5.3 °C 999.5 hPa North 16.7 km/h 6.1 km/h 92 % 4.6 mm
13:09 6.6 °C 5.3 °C 999.9 hPa North 16.7 km/h 6.6 km/h 92 % 4.19 mm
13:14 6.6 °C 5.3 °C 999.5 hPa North 13 km/h 10.1 km/h 92 % 3.99 mm
13:19 6.5 °C 5.3 °C 999.5 hPa NNW 16.7 km/h 8.4 km/h 92 % 3.81 mm
13:24 6.5 °C 5.4 °C 999.5 hPa North 9.3 km/h 6.3 km/h 93 % 3.4 mm
13:29 6.4 °C 5.4 °C 999.5 hPa North 14.8 km/h 11.3 km/h 93 % 2.79 mm
13:34 6.4 °C 5.4 °C 999.2 hPa NNW 16.7 km/h 9 km/h 93 % 2.59 mm
13:39 6.4 °C 5.4 °C 999.2 hPa NNW 5.6 km/h 4.3 km/h 93 % 2.39 mm
13:44 6.4 °C 5.4 °C 999.2 hPa North 11.3 km/h 11.6 km/h 93 % 2.39 mm
13:49 6.5 °C 5.4 °C 998.9 hPa North 9.3 km/h 6.3 km/h 93 % 2.39 mm
13:54 6.6 °C 5.5 °C 998.9 hPa North 9.7 km/h 6.1 km/h 93 % 2.39 mm
13:59 6.6 °C 5.5 °C 998.9 hPa North 9.3 km/h 5.3 km/h 93 % 2.39 mm
14:04 6.6 °C 5.5 °C 998.9 hPa North 14.8 km/h 8.7 km/h 93 % 2.21 mm
14:09 6.6 °C 5.5 °C 998.9 hPa North 14.8 km/h 7.2 km/h 93 % 2.21 mm
14:14 6.6 °C 5.7 °C 998.9 hPa North 9.3 km/h 5.3 km/h 94 % 2.21 mm
14:19 6.7 °C 5.8 °C 998.9 hPa North 13 km/h 8.2 km/h 94 % 2.01 mm
14:24 6.7 °C 5.6 °C 998.9 hPa North 13 km/h 8.7 km/h 93 % 1.8 mm
14:29 6.7 °C 5.7 °C 998.9 hPa North 9.3 km/h 6.9 km/h 93 % 2.01 mm
14:34 6.7 °C 5.8 °C 998.9 hPa North 11.1 km/h 4.5 km/h 94 % 1.8 mm
14:39 6.8 °C 5.9 °C 998.5 hPa North 8 km/h 4.5 km/h 94 % 1.6 mm
14:44 6.8 °C 5.9 °C 998.5 hPa North 7.4 km/h 7.9 km/h 94 % 1.6 mm
14:49 6.7 °C 5.8 °C 998.9 hPa North 11.1 km/h 3.4 km/h 94 % 1.19 mm
14:54 6.8 °C 5.9 °C 998.9 hPa North 11.1 km/h 4.7 km/h 94 % 0.99 mm
14:59 6.7 °C 5.8 °C 998.9 hPa North 11.1 km/h 6.1 km/h 94 % 1.19 mm
15:04 6.7 °C 5.8 °C 998.9 hPa North 13 km/h 8 km/h 94 % 1.19 mm
15:09 6.7 °C 5.8 °C 998.9 hPa North 9.7 km/h 8.9 km/h 94 % 0.99 mm
15:14 6.7 °C 5.8 °C 998.9 hPa North 12.9 km/h 7.2 km/h 94 % 0.99 mm
15:19 6.7 °C 5.8 °C 999.2 hPa North 12.9 km/h 11.6 km/h 94 % 1.19 mm
15:24 6.7 °C 5.8 °C 999.2 hPa North 13 km/h 8.4 km/h 94 % 1.19 mm
15:29 6.6 °C 5.7 °C 999.2 hPa North 8 km/h 6 km/h 94 % 1.19 mm
15:34 6.6 °C 5.7 °C 999.2 hPa North 11.3 km/h 8.9 km/h 94 % 1.4 mm
15:39 6.6 °C 5.7 °C 999.5 hPa North 13 km/h 7.7 km/h 94 % 1.6 mm
15:44 6.6 °C 5.7 °C 999.5 hPa North 13 km/h 5.3 km/h 94 % 1.4 mm
15:49 6.6 °C 5.7 °C 999.5 hPa North 6.4 km/h 3.9 km/h 94 % 1.6 mm
15:54 6.6 °C 5.7 °C 999.2 hPa North 9.3 km/h 4 km/h 94 % 1.6 mm
15:59 6.6 °C 5.7 °C 999.2 hPa North 7.4 km/h 5 km/h 94 % 1.19 mm
16:04 6.6 °C 5.7 °C 999.5 hPa North 9.3 km/h 6.3 km/h 94 % 1.4 mm
16:09 6.6 °C 5.7 °C 999.5 hPa North 7.4 km/h 6.8 km/h 94 % 1.4 mm
16:14 6.6 °C 5.7 °C 999.5 hPa North 5.6 km/h 3.5 km/h 94 % 1.19 mm
16:19 6.6 °C 5.7 °C 999.5 hPa North 11.1 km/h 5.1 km/h 94 % 0.99 mm
16:24 6.6 °C 5.7 °C 999.2 hPa North 3.7 km/h 1.6 km/h 94 % 0.99 mm
16:29 6.7 °C 5.8 °C 999.2 hPa North 9.7 km/h 5.3 km/h 94 % 0.79 mm
16:34 6.6 °C 5.7 °C 999.2 hPa North 7.4 km/h 6.6 km/h 94 % 0.61 mm
16:39 6.7 °C 5.8 °C 999.2 hPa North 9.3 km/h 9.5 km/h 94 % 0.61 mm
16:44 6.7 °C 5.8 °C 999.5 hPa North 3.7 km/h 4.3 km/h 94 % 0.61 mm
16:49 6.7 °C 5.8 °C 999.5 hPa North 6.4 km/h 4 km/h 94 % 0.41 mm
16:54 6.7 °C 5.8 °C 999.5 hPa North 5.6 km/h 4.5 km/h 94 % 0.41 mm
16:59 6.7 °C 5.8 °C 999.5 hPa North 9.3 km/h 5 km/h 94 % 0.41 mm
17:04 6.7 °C 5.9 °C 999.9 hPa North 7.4 km/h 5.1 km/h 95 % 0.2 mm
17:09 6.7 °C 5.9 °C 999.9 hPa North 13 km/h 5.6 km/h 95 % 0.2 mm
17:14 6.7 °C 5.9 °C 999.9 hPa North 7.4 km/h 4.2 km/h 95 % 0.2 mm
17:19 6.7 °C 5.9 °C 1000.2 hPa North 13 km/h 8.7 km/h 95 % 0.2 mm
17:24 6.7 °C 5.9 °C 1000.2 hPa North 13 km/h 7.1 km/h 95 % 0.2 mm
17:29 6.7 °C 5.9 °C 1000.2 hPa North 9.3 km/h 8 km/h 95 % 0.2 mm
17:34 6.7 °C 5.9 °C 1000.2 hPa North 9.3 km/h 6.6 km/h 95 % 0.2 mm
17:39 6.7 °C 5.9 °C 1000.2 hPa North 11.1 km/h 6.9 km/h 95 % 0 mm
17:44 6.7 °C 5.9 °C 1000.2 hPa North 11.1 km/h 4 km/h 95 % 0 mm
17:49 6.7 °C 5.9 °C 1000.6 hPa North 13 km/h 9.3 km/h 95 % 0 mm
17:54 6.7 °C 5.9 °C 1000.6 hPa North 13 km/h 6.8 km/h 95 % 0 mm
17:59 6.7 °C 5.9 °C 1000.6 hPa North 13 km/h 4 km/h 95 % 0 mm
18:04 6.7 °C 5.9 °C 1000.6 hPa North 9.3 km/h 7.1 km/h 95 % 0 mm
18:09 6.7 °C 6 °C 1000.9 hPa North 13 km/h 9 km/h 95 % 0 mm
18:14 6.7 °C 6 °C 1000.9 hPa North 11.3 km/h 6.8 km/h 95 % 0 mm
18:19 6.8 °C 6.1 °C 1000.9 hPa North 14.8 km/h 6 km/h 95 % 0 mm
18:24 6.8 °C 6.1 °C 1000.9 hPa North 18.5 km/h 7.1 km/h 95 % 0 mm
18:29 6.8 °C 6.1 °C 1000.9 hPa North 13 km/h 9.7 km/h 95 % 0 mm
18:34 6.9 °C 6.2 °C 1000.9 hPa North 11.1 km/h 6.9 km/h 95 % 0 mm
18:39 6.9 °C 6.2 °C 1001.2 hPa North 16.7 km/h 7.9 km/h 95 % 0 mm
18:44 6.9 °C 6.2 °C 1001.2 hPa North 14.8 km/h 7.4 km/h 95 % 0 mm
18:49 6.9 °C 6.2 °C 1001.2 hPa North 13 km/h 4.3 km/h 95 % 0 mm
18:54 6.9 °C 6.2 °C 1001.2 hPa North 13 km/h 9.8 km/h 95 % 0 mm
18:59 6.9 °C 6.2 °C 1001.2 hPa North 14.5 km/h 10 km/h 95 % 0 mm
19:04 6.9 °C 6.2 °C 1001.2 hPa North 18.5 km/h 12.1 km/h 95 % 0 mm
19:09 6.9 °C 6.2 °C 1001.2 hPa North 9.3 km/h 7.6 km/h 95 % 0 mm
19:14 7 °C 6.3 °C 1001.2 hPa North 13 km/h 9.8 km/h 95 % 0 mm
19:19 7 °C 6.3 °C 1001.2 hPa North 16.7 km/h 7.7 km/h 95 % 0 mm
19:24 7.1 °C 6.3 °C 1001.2 hPa North 16.7 km/h 9 km/h 95 % 0.2 mm
19:29 7.1 °C 6.4 °C 1001.6 hPa North 9.3 km/h 8 km/h 95 % 0.2 mm
19:34 7.1 °C 6.4 °C 1001.6 hPa North 13 km/h 8.9 km/h 95 % 0.41 mm
19:39 7.2 °C 6.4 °C 1001.9 hPa NNW 11.1 km/h 5 km/h 95 % 0.41 mm
19:44 7.2 °C 6.5 °C 1001.9 hPa NNW 11.1 km/h 8.4 km/h 95 % 0.41 mm
19:49 7.3 °C 6.6 °C 1001.9 hPa NNW 13 km/h 5.1 km/h 95 % 0.41 mm
19:54 7.3 °C 6.6 °C 1001.9 hPa North 11.3 km/h 8.4 km/h 95 % 0.61 mm
19:59 7.4 °C 6.8 °C 1001.9 hPa North 16.7 km/h 11.3 km/h 96 % 0.61 mm
20:04 7.6 °C 6.9 °C 1001.9 hPa NW 18.5 km/h 12.6 km/h 95 % 0.61 mm
20:09 7.8 °C 7.2 °C 1002.3 hPa North 20.4 km/h 17.4 km/h 96 % 0.61 mm
20:14 7.9 °C 7.1 °C 1002.3 hPa WNW 22.2 km/h 13.8 km/h 95 % 0.61 mm
20:19 7.9 °C 7.2 °C 1002.6 hPa WNW 13 km/h 9.5 km/h 95 % 0.61 mm
20:24 8 °C 7.2 °C 1002.6 hPa WNW 16.1 km/h 13.2 km/h 95 % 0.41 mm
20:29 8 °C 7.2 °C 1002.6 hPa WNW 27.8 km/h 16.6 km/h 95 % 0.41 mm
20:34 8.1 °C 7.2 °C 1002.9 hPa WNW 25.9 km/h 17.9 km/h 94 % 0.2 mm
20:39 8.1 °C 7.2 °C 1002.9 hPa WNW 20.4 km/h 11.9 km/h 94 % 0.2 mm
20:44 8.2 °C 7.1 °C 1003.3 hPa West 24.1 km/h 11.4 km/h 93 % 0.2 mm
20:49 8.2 °C 7.2 °C 1003.3 hPa WNW 18.5 km/h 17.2 km/h 93 % 0.2 mm
20:54 8.3 °C 7.1 °C 1003.6 hPa WNW 14.5 km/h 12.4 km/h 92 % 0 mm
20:59 8.4 °C 7.2 °C 1003.6 hPa West 19.3 km/h 14.2 km/h 92 % 0.2 mm
21:04 8.4 °C 7 °C 1003.9 hPa North 16.7 km/h 8.7 km/h 91 % 0.41 mm
21:09 8.3 °C 6.9 °C 1003.9 hPa West 9.3 km/h 9.2 km/h 91 % 0.41 mm
21:14 8.3 °C 6.9 °C 1003.9 hPa North 7.4 km/h 5 km/h 91 % 0.41 mm
21:19 8.3 °C 6.9 °C 1004.3 hPa WNW 8 km/h 8.9 km/h 91 % 0.41 mm
21:24 8.3 °C 6.9 °C 1004.3 hPa WNW 14.8 km/h 6.1 km/h 91 % 0.41 mm
21:29 8.3 °C 6.9 °C 1004.3 hPa WNW 11.1 km/h 8.2 km/h 91 % 0.41 mm
21:34 8.4 °C 7 °C 1004.6 hPa North 5.6 km/h 5.3 km/h 91 % 0.41 mm
21:39 8.4 °C 7 °C 1004.6 hPa WNW 9.3 km/h 6.8 km/h 91 % 0.41 mm
21:44 8.4 °C 7 °C 1004.6 hPa WNW 7.4 km/h 6.8 km/h 91 % 0.41 mm
21:49 8.3 °C 6.9 °C 1005 hPa North 3.2 km/h 0.2 km/h 91 % 0.41 mm
21:54 8.3 °C 6.7 °C 1005 hPa WNW 7.4 km/h 8.5 km/h 90 % 0.41 mm
21:59 8.3 °C 6.7 °C 1005.3 hPa WNW 4.8 km/h 3.4 km/h 90 % 0.2 mm
22:04 8.2 °C 6.7 °C 1005.3 hPa WNW 9.3 km/h 3.9 km/h 90 % 0 mm
22:09 8.2 °C 6.7 °C 1005.3 hPa WNW 6.4 km/h 3.2 km/h 90 % 0 mm
22:14 8.2 °C 6.7 °C 1005.3 hPa WNW 6.4 km/h 6.6 km/h 90 % 0 mm
22:19 8.3 °C 6.7 °C 1005.3 hPa WNW 6.4 km/h 4.3 km/h 90 % 0 mm
22:24 8.2 °C 6.6 °C 1005.3 hPa WNW 9.3 km/h 8 km/h 90 % 0 mm
22:29 8.2 °C 6.4 °C 1005.6 hPa North 5.6 km/h 2.6 km/h 89 % 0 mm
22:34 8.2 °C 6.4 °C 1005.6 hPa Calm     89 % 0 mm
22:39 8.1 °C 6.4 °C 1006 hPa Calm     89 % 0 mm
22:44 8.1 °C 6.6 °C 1006 hPa WNW 3.7 km/h 2.1 km/h 90 % 0 mm
22:49 8.1 °C 6.6 °C 1006 hPa WNW 3.7 km/h 3.2 km/h 90 % 0 mm
22:54 8.1 °C 6.6 °C 1006 hPa WNW 4.8 km/h 2.7 km/h 90 % 0 mm
22:59 8.2 °C 6.6 °C 1006 hPa WNW 5.6 km/h 3.1 km/h 90 % 0 mm
23:04 8.2 °C 6.7 °C 1006.3 hPa WNW 9.7 km/h 7.1 km/h 90 % 0 mm
23:09 8.2 °C 6.7 °C 1006.3 hPa WNW 9.3 km/h 5 km/h 90 % 0 mm
23:14 8.2 °C 6.7 °C 1006.3 hPa WNW 3.7 km/h 0.5 km/h 90 % 0 mm
23:19 8.2 °C 6.6 °C 1006.7 hPa WNW 3.2 km/h 1.1 km/h 90 % 0 mm
23:24 8.1 °C 6.6 °C 1006.7 hPa WNW 7.4 km/h 3.7 km/h 90 % 0 mm
23:29 8.1 °C 6.6 °C 1006.7 hPa WNW 7.4 km/h 4.8 km/h 90 % 0 mm
23:34 8.1 °C 6.5 °C 1007 hPa WNW 6.4 km/h 2.9 km/h 90 % 0 mm
23:39 8 °C 6.4 °C 1006.7 hPa WNW 5.6 km/h 1.3 km/h 90 % 0 mm
23:44 8 °C 6.3 °C 1007 hPa WNW 5.6 km/h 2.9 km/h 89 % 0 mm
23:49 7.9 °C 6.2 °C 1007 hPa WNW 5.6 km/h 1.9 km/h 89 % 0 mm
23:54 7.8 °C 6.1 °C 1007 hPa WNW 7.4 km/h 6.8 km/h 89 % 0 mm
23:59 7.7 °C 5.8 °C 1007 hPa WNW 9.3 km/h 5.1 km/h 88 % 0 mm
Ararat Weather
Compliments of Weather Underground - 2.25 mb
Click here to send mail.


ABOUT

Live weather data from Ararat, Victoria, Australia, 3377
Data uploaded from Cumulus every 5 minutes to Weather Underground.
This site then downloads the raw data for formatting and display.
Metric and imperial data can be displayed. Graphs and historical data available.
Includes Sun and Moon times and rain image live from BOM.

Check out Ararat Weather on Facebook, Twitter and Google +

Help support ongoing costs by checking out the ads





Follow @AraratWeather